Location: Puketoi
(40.5833°S, 176.0167°E)
Time: 14:19:54
(UTC+00:00)

USA 229 - Pass Details

Date: 08 February 2023
Orbit: 915 x 1297 km, 63.4° (Epoch: 16 March)

Event Time Altitude Azimuth Distance (km) Brightness Sun altitude
Rises 12:01:21 0° 214° (SW) 3,873 7.5 -34.0°
Reaches altitude 10° 12:04:07 10° 212° (SSW) 2,859 6.6 -34.1°
Enters shadow 12:09:37 60° 189° (S) 1,127 3.9 -34.2°
